Change the Weather History Date:

Saturday, October 15, 2011

  Actual Average Record
Temperature  
Mean Temperature 64 °F -  
Max Temperature 70 °F 61 °F 79 °F (1961)
Min Temperature 59 °F 45 °F 26 °F (1971)
Growing Degree Days 14 (Base 50)    
Moisture  
Dew Point 42 °F    
Average Humidity 46    
Maximum Humidity 69    
Minimum Humidity 33    
Precipitation  
Precipitation 0.00 in - - ()
Sea Level Pressure  
Sea Level Pressure 29.88 in    
Wind  
Wind Speed 4 mph (SSE)    
Max Wind Speed 8 mph    
Max Gust Speed -    
Visibility 10 miles    
Events      
Averages and records for this station are not official NWS values.
T = Trace of Precipitation, MM = Missing Value Source: NWS Daily Summary

Daily Weather History Graph

Daily Weather History Graph

Search for Another Location

Airport or City:

Trip Planner

Search our weather history database for the weather conditions in past years. The results will help you decide how hot, cold, wet, or windy it might be!

Date:

Astronomy

Oct. 15, 2011 Rise Set
Actual Time 7:12 AM PDT 6:24 PM PDT
Civil Twilight 6:45 AM PDT 6:51 PM PDT
Nautical Twilight 6:14 AM PDT 7:22 PM PDT
Astronomical Twilight 5:43 AM PDT 7:53 PM PDT
Moon 8:26 PM PDT (10/15) 10:39 AM PDT (10/15)
Length of Visible Light 12h 05m
Length of Day
11h 11m
Waning Gibbous, 88% of the Moon is Illuminated
Oct 15
Waning Gibbous
Oct 19
Last Quarter
Oct 26
New
Nov 2
First Quarter
Nov 10
Full

Hourly Weather History & Observations

Time (PDT) Temp. Dew Point Humidity Pressure Visibility Wind Dir Wind Speed Gust Speed Precip Events Conditions
12:52 AM 63.0 °F 39.9 °F 43% 29.84 in 10.0 mi SE 5.8 mph - N/A   Clear
1:52 AM 62.1 °F 39.0 °F 43% 29.85 in 10.0 mi SE 3.5 mph - N/A   Clear
2:52 AM 63.0 °F 37.0 °F 38% 29.84 in 10.0 mi SSE 5.8 mph - N/A   Clear
3:52 AM 62.1 °F 37.0 °F 39% 29.85 in 10.0 mi SE 4.6 mph - N/A   Clear
4:52 AM 62.1 °F 37.9 °F 41% 29.85 in 10.0 mi ESE 3.5 mph - N/A   Clear
5:52 AM 61.0 °F 37.9 °F 42% 29.86 in 10.0 mi Calm Calm - N/A   Clear
6:52 AM 61.0 °F 37.9 °F 42% 29.87 in 10.0 mi ESE 3.5 mph - N/A   Clear
7:52 AM 61.0 °F 39.9 °F 46% 29.88 in 10.0 mi Calm Calm - N/A   Clear
8:52 AM 63.0 °F 39.9 °F 43% 29.89 in 10.0 mi Calm Calm - N/A   Clear
9:52 AM 66.9 °F 37.0 °F 33% 29.89 in 10.0 mi Variable 5.8 mph - N/A   Clear
10:52 AM 68.0 °F 39.0 °F 35% 29.88 in 10.0 mi SSE 6.9 mph - N/A   Clear
11:52 AM 66.9 °F 41.0 °F 39% 29.89 in 10.0 mi South 8.1 mph - N/A   Clear
12:52 PM 69.1 °F 39.0 °F 33% 29.88 in 10.0 mi South 6.9 mph - N/A   Clear
1:52 PM 68.0 °F 42.1 °F 39% 29.88 in 10.0 mi South 8.1 mph - N/A   Clear
2:52 PM 70.0 °F 42.1 °F 36% 29.85 in 10.0 mi South 6.9 mph - N/A   Clear
3:52 PM 69.1 °F 39.9 °F 35% 29.85 in 10.0 mi South 6.9 mph - N/A   Clear
4:52 PM 64.9 °F 48.0 °F 54% 29.87 in 10.0 mi SW 3.5 mph - N/A   Clear
5:52 PM 63.0 °F 48.9 °F 60% 29.89 in 10.0 mi Calm Calm - N/A   Clear
6:52 PM 60.1 °F 50.0 °F 69% 29.90 in 10.0 mi Calm Calm - N/A   Clear
7:52 PM 59.0 °F 48.9 °F 69% 29.92 in 10.0 mi Calm Calm - N/A   Clear
8:52 PM 61.0 °F 48.0 °F 62% 29.92 in 10.0 mi ESE 3.5 mph - N/A   Clear
9:52 PM 59.0 °F 42.1 °F 53% 29.92 in 10.0 mi ESE 3.5 mph - N/A   Clear
10:52 PM 60.1 °F 43.0 °F 53% 29.91 in 10.0 mi ESE 3.5 mph - N/A   Clear
11:52 PM 60.1 °F 41.0 °F 49% 29.91 in 10.0 mi Calm Calm - N/A   Clear